Weather History for KPIR - August, 2014

Change the Weather History Date:

Friday, August 15, 2014

  Actual Average Record
Temperature  
Mean Temperature 75 °F 74 °F  
Max Temperature 85 °F 88 °F 114 °F (1988)
Min Temperature 65 °F 61 °F 52 °F (1959)
Degree Days  
Heating Degree Days 0 0  
Month to date heating degree days 0 0  
Since 1 June heating degree days 86 59  
Since 1 July heating degree days 19 6  
Cooling Degree Days 10 10  
Month to date cooling degree days 113 158  
Year to date cooling degree days 450 651  
Since 1 June cooling degree days 402 619  
Growing Degree Days 25 (Base 50)    
Moisture  
Dew Point 68 °F    
Average Humidity 80    
Maximum Humidity 100    
Minimum Humidity 59    
Precipitation  
Precipitation T in 0.05 in 1.64 in (2009)
Month to date precipitation 1.10 0.99  
Year to date precipitation 14.29 14.37  
Sea Level Pressure  
Sea Level Pressure 29.78 in    
Wind  
Wind Speed 6 mph (East)    
Max Wind Speed 14 mph    
Max Gust Speed 17 mph    
Visibility 10 miles    
Events      
T = Trace of Precipitation, MM = Missing Value Source: NWS Daily Summary

Daily Weather History Graph

Daily Weather History Graph

Search for Another Location

Airport or City:

Trip Planner

Search our weather history database for the weather conditions in past years. The results will help you decide how hot, cold, wet, or windy it might be!

Date:

Astronomy

Aug. 15, 2014 Rise Set
Actual Time 6:44 AM CDT 8:46 PM CDT
Civil Twilight 6:12 AM CDT 9:17 PM CDT
Nautical Twilight 5:33 AM CDT 9:56 PM CDT
Astronomical Twilight 4:51 AM CDT 10:38 PM CDT
Moon 11:33 PM CDT (8/15) 12:44 PM CDT (8/15)
Length of Visible Light 15h 04m
Length of Day
14h 01m
Waning Gibbous, 69% of the Moon is Illuminated
Aug 15
Waning Gibbous
Aug 17
Last Quarter
Aug 25
New
Sep 2
First Quarter
Sep 8
Full

Hourly Weather History & Observations

Time (CDT) Temp. Heat Index Dew Point Humidity Pressure Visibility Wind Dir Wind Speed Gust Speed Precip Events Conditions
12:53 AM 73.9 °F - 68.0 °F 82% 29.75 in 10.0 mi ESE 8.1 mph - N/A   Clear
1:53 AM 73.9 °F - 68.0 °F 82% 29.75 in 10.0 mi ESE 4.6 mph - N/A   Clear
2:53 AM 70.0 °F - 66.9 °F 90% 29.75 in 10.0 mi ESE 9.2 mph - N/A   Clear
3:53 AM 71.1 °F - 68.0 °F 90% 29.74 in 10.0 mi ESE 8.1 mph - N/A   Clear
4:53 AM 70.0 °F - 66.9 °F 90% 29.73 in 10.0 mi SSE 10.4 mph - N/A   Clear
5:53 AM 68.0 °F - 66.9 °F 96% 29.74 in 10.0 mi ENE 3.5 mph - N/A   Clear
6:53 AM 66.0 °F - 64.9 °F 96% 29.75 in 10.0 mi East 5.8 mph - N/A   Clear
7:53 AM 66.9 °F - 66.9 °F 100% 29.78 in 7.0 mi ENE 5.8 mph - N/A   Scattered Clouds
8:50 AM 69.8 °F - 66.2 °F 88% 29.82 in 10.0 mi ESE 9.2 mph - N/A   Scattered Clouds
8:53 AM 71.1 °F - 66.9 °F 87% 29.78 in 10.0 mi ESE 5.8 mph - N/A   Scattered Clouds
9:15 AM 71.1 °F - 66.9 °F 87% 29.83 in 10.0 mi ESE 8.1 mph - N/A   Mostly Cloudy
9:25 AM 72.0 °F - 66.9 °F 84% 29.83 in 10.0 mi ESE 12.7 mph - N/A   Mostly Cloudy
9:53 AM 72.0 °F - 66.9 °F 84% 29.79 in 10.0 mi SSE 6.9 mph - N/A   Scattered Clouds
10:41 AM 72.0 °F - 66.9 °F 84% 29.83 in 10.0 mi South 4.6 mph - N/A   Overcast
10:53 AM 72.0 °F - 66.9 °F 84% 29.79 in 10.0 mi Variable 3.5 mph - N/A   Overcast
11:33 AM 73.9 °F - 68.0 °F 82% 29.84 in 10.0 mi Calm Calm - N/A   Mostly Cloudy
11:45 AM 73.9 °F - 68.0 °F 82% 29.84 in 10.0 mi Variable 3.5 mph - N/A   Mostly Cloudy
11:53 AM 73.9 °F - 68.0 °F 82% 29.80 in 10.0 mi NW 4.6 mph - N/A   Overcast
12:19 PM 75.0 °F - 68.0 °F 79% 29.83 in 10.0 mi NW 9.2 mph - N/A   Scattered Clouds
12:53 PM 77.0 °F - 68.0 °F 74% 29.79 in 10.0 mi NW 8.1 mph - N/A   Clear
1:53 PM 80.1 °F 82.7 °F 68.0 °F 67% 29.78 in 10.0 mi WNW 9.2 mph - 0.00 in   Clear
2:53 PM 82.9 °F 85.8 °F 68.0 °F 60% 29.77 in 10.0 mi NW 11.5 mph - N/A   Mostly Cloudy
3:53 PM 84.0 °F 87.0 °F 68.0 °F 58% 29.75 in 10.0 mi North 8.1 mph - N/A   Mostly Cloudy
4:53 PM 84.9 °F 88.2 °F 68.0 °F 57% 29.75 in 10.0 mi NNE 8.1 mph - N/A   Partly Cloudy
5:53 PM 82.0 °F 85.5 °F 69.1 °F 65% 29.76 in 10.0 mi East 5.8 mph - N/A   Overcast
6:53 PM 81.0 °F 84.1 °F 69.1 °F 67% 29.76 in 10.0 mi East 6.9 mph - N/A   Clear
7:53 PM 80.1 °F 83.2 °F 70.0 °F 71% 29.76 in 10.0 mi NNE 5.8 mph - N/A   Partly Cloudy
8:53 PM 79.0 °F - 70.0 °F 74% 29.76 in 10.0 mi Calm Calm - N/A   Clear
9:53 PM 75.0 °F - 69.1 °F 82% 29.78 in 10.0 mi NNE 4.6 mph - N/A   Clear
10:53 PM 73.0 °F - 68.0 °F 84% 29.79 in 10.0 mi Calm Calm - N/A   Clear